GW0169 Weather Reports


time (UTC)temp
C
wind
direction
speed
KPH
gust
KPH
rain 1hr
cm
rain 24hr
cm
rain mn
cm
humidity
%
barometer
mb
20260508060038 20 261 9.7 27.4 0.00 0.00 0.00 75 1008.3
20260508054542 20 253 6.4 29.0 0.00 0.00 0.00 76 1008.7
20260508053050 20 295 11.3 25.7 0.00 0.00 0.00 75 1009.1
20260508051557 20 295 11.3 24.1 0.00 0.00 0.00 76 1009.0
20260508050040 20 295 14.5 30.6 0.00 0.00 0.00 76 1008.3
20260508044537 20 295 16.1 37.0 0.00 0.00 0.00 75 1008.2
20260508043037 20 340 12.9 40.2 0.00 0.00 0.00 76 1007.9
20260508041537 20 264 19.3 41.8 0.00 0.00 0.00 76 1008.2
20260508040043 20 267 19.3 40.2 0.00 0.00 0.00 75 1008.4
20260508034539 20 287 22.5 46.7 0.00 0.00 0.00 75 1008.3
20260508033046 20 254 19.3 43.5 0.00 0.00 0.00 75 1008.3
20260508031539 20 270 20.9 38.6 0.00 0.00 0.00 74 1008.5
20260508030044 20 258 17.7 40.2 0.00 0.00 0.00 74 1008.8
20260508024540 20 229 20.9 40.2 0.00 0.00 0.00 74 1009.3
20260508023038 20 220 16.1 37.0 0.00 0.00 0.00 74 1009.5
20260508021545 20 251 16.1 40.2 0.00 0.00 0.00 74 1009.8
20260508020037 20 289 16.1 32.2 0.00 0.00 0.00 75 1010.0
20260508014539 20 283 14.5 32.2 0.00 0.00 0.00 75 1010.1
20260508013037 20 287 11.3 27.4 0.00 0.00 0.00 76 1010.2
20260508011546 20 273 12.9 24.1 0.00 0.00 0.00 76 1010.1
20260508010055 20 330 12.9 24.1 0.00 0.00 0.00 76 1010.1
20260508004542 20 264 6.4 19.3 0.00 0.00 0.00 77 1010.2
20260508003040 20 285 9.7 22.5 0.00 0.00 0.00 77 1009.9
20260508001537 20 314 9.7 19.3 0.00 0.00 0.00 77 1010.0
20260508000044 20 311 4.8 17.7 0.00 0.00 0.00 77 1009.9
20260507234537 20 27 4.8 12.9 0.00 0.00 0.00 77 1009.9
20260507233044 20 293 4.8 16.1 0.00 0.00 0.00 78 1010.0
20260507231541 20 291 4.8 14.5 0.00 0.00 0.00 77 1010.2
20260507230054 20 336 4.8 16.1 0.00 0.00 0.00 77 1010.2
20260507224537 20 300 3.2 16.1 0.00 0.00 0.00 77 1010.4
20260507223111 20 258 1.6 12.9 0.00 0.00 0.00 76 1010.4
20260507221540 20 297 6.4 16.1 0.00 0.00 0.00 76 1010.6
20260507220039 21 309 3.2 16.1 0.00 0.00 0.00 76 1010.4
20260507214544 20 316 3.2 11.3 0.00 0.00 0.00 76 1010.4
20260507213037 21 308 3.2 19.3 0.00 0.00 0.00 76 1010.5
20260507211542 21 297 4.8 12.9 0.00 0.00 0.00 75 1010.5
20260507210046 21 316 3.2 12.9 0.00 0.00 0.00 75 1010.4
20260507204542 21 274 1.6 14.5 0.00 0.00 0.00 74 1010.4
20260507203041 21 270 4.8 14.5 0.00 0.00 0.00 72 1010.7
20260507201541 22 279 6.4 17.7 0.00 0.00 0.00 70 1010.6
20260507200054 23 0 8.0 17.7 0.00 0.00 0.00 68 1010.4
20260507194537 23 297 9.7 20.9 0.00 0.00 0.00 68 1010.6
20260507193045 22 244 12.9 29.0 0.00 0.00 0.00 67 1010.4
20260507191537 23 297 8.0 27.4 0.00 0.00 0.00 68 1010.4
20260507190049 22 305 8.0 22.5 0.00 0.00 0.00 71 1010.2
20260507184539 22 261 9.7 33.8 0.00 0.00 0.00 70 1010.2
20260507183040 22 253 11.3 25.7 0.00 0.00 0.00 70 1010.2
20260507181538 22 282 12.9 27.4 0.00 0.00 0.00 69 1010.2
20260507180036 22 287 11.3 29.0 0.00 0.00 0.00 68 1010.1
20260507174553 23 247 14.5 38.6 0.00 0.00 0.00 66 1010.4
20260507173040 23 249 20.9 43.5 0.00 0.00 0.00 65 1010.4
20260507171542 24 237 19.3 40.2 0.00 0.00 0.00 66 1010.4
20260507170044 24 296 22.5 35.4 0.00 0.00 0.00 67 1010.8
20260507164537 24 301 16.1 35.4 0.00 0.00 0.00 67 1011.1
20260507163037 23 345 24.1 48.3 0.00 0.00 0.00 65 1011.2
20260507161551 23 268 20.9 37.0 0.00 0.00 0.00 65 1011.5
20260507160042 23 253 20.9 37.0 0.00 0.00 0.00 65 1011.6
20260507154543 23 330 19.3 37.0 0.00 0.00 0.00 67 1011.9
20260507153042 23 245 17.7 41.8 0.00 0.00 0.00 67 1012.5
20260507151537 23 287 17.7 32.2 0.00 0.00 0.00 69 1012.7
20260507150043 23 301 14.5 32.2 0.00 0.00 0.00 72 1012.9
20260507144539 21 272 11.3 25.7 0.00 0.00 0.00 77 1013.4
20260507143038 21 262 17.7 38.6 0.00 0.00 0.00 76 1014.0
20260507141537 21 249 11.3 33.8 0.00 0.00 0.00 78 1014.2
20260507140038 21 248 20.9 37.0 0.00 0.00 0.00 78 1014.6
20260507134535 21 295 11.3 24.1 0.00 0.00 0.00 77 1014.9
20260507133039 20 284 14.5 22.5 0.00 0.00 0.00 79 1015.2
20260507131538 20 301 11.3 22.5 0.00 0.00 0.00 80 1015.2
20260507130055 21 299 8.0 22.5 0.00 0.00 0.00 80 1015.5
20260507124536 20 287 11.3 24.1 0.00 0.00 0.00 82 1015.4
20260507123041 20 260 11.3 20.9 0.00 0.00 0.00 84 1015.5
20260507121543 19 301 11.3 20.9 0.00 0.00 0.00 85 1015.6
20260507120039 19 302 9.7 22.5 0.00 0.00 0.00 85 1015.7
20260507114539 18 288 6.4 17.7 0.00 0.00 0.00 87 1015.9
20260507113037 18 0 8.0 12.9 0.00 0.00 0.00 88 1015.9
20260507111536 18 341 4.8 12.9 0.00 0.00 0.00 88 1015.9
20260507110043 18 291 3.2 11.3 0.00 0.00 0.00 88 1015.9
20260507104537 17 347 1.6 11.3 0.00 0.00 0.00 89 1015.8
20260507103036 17 0 1.6 6.4 0.00 0.00 0.00 89 1015.8
20260507101542 17 309 1.6 8.0 0.00 0.00 0.00 90 1015.8
20260507100047 17 0 0.0 3.2 0.00 0.00 0.00 89 1015.8
20260507094539 17 0 0.0 6.4 0.00 0.00 0.00 89 1015.9
20260507093039 17 78 0.0 9.7 0.00 0.00 0.00 89 1015.8
20260507091537 17 85 1.6 4.8 0.00 0.00 0.00 88 1015.7
20260507090036 17 39 0.0 1.6 0.00 0.00 0.00 89 1015.9
20260507084544 17 0 0.0 6.4 0.00 0.00 0.00 89 1016.0
20260507083051 17 77 1.6 8.0 0.00 0.00 0.00 89 1016.0
20260507081538 16 62 3.2 6.4 0.00 0.00 0.00 90 1016.1
20260507080038 16 0 0.0 4.8 0.00 0.00 0.00 90 1016.2
20260507074537 16 0 0.0 3.2 0.00 0.00 0.00 90 1016.3
20260507073048 17 0 0.0 4.8 0.00 0.00 0.00 90 1016.5
20260507071539 17 0 0.0 9.7 0.00 0.00 0.00 89 1016.6
20260507070041 17 98 1.6 6.4 0.00 0.00 0.00 89 1016.7
20260507064541 17 131 1.6 6.4 0.00 0.00 0.00 88 1016.8
20260507063041 17 85 0.0 9.7 0.00 0.00 0.00 88 1017.0
20260507061544 17 95 1.6 12.9 0.00 0.00 0.00 87 1017.2